Alva, OK

6:32 PM CDT on May 22, 2017 (GMT -0500)
Alva Regional

Weather History for KAVK - April, 2014

Change the Weather History Date:

Saturday, April 12, 2014

  Actual Average Record
Temperature  
Mean Temperature 73 °F -  
Max Temperature 91 °F 70 °F 98 °F (1972)
Min Temperature 55 °F 46 °F 24 °F (1957)
Cooling Degree Days 8    
Growing Degree Days 23 (Base 50)    
Moisture  
Dew Point 55 °F    
Average Humidity 63    
Maximum Humidity 100    
Minimum Humidity 21    
Precipitation  
Precipitation 0.00 in - - ()
Sea Level Pressure  
Sea Level Pressure 29.65 in    
Wind  
Wind Speed 15 mph (South)    
Max Wind Speed 30 mph    
Max Gust Speed 40 mph    
Visibility 9 miles    
Events      
Averages and records for this station are not official NWS values.
T = Trace of Precipitation, MM = Missing Value Source: NWS Daily Summary

Daily Weather History Graph

Daily Weather History Graph

Search for Another Location

Airport or City:

Trip Planner

Search our weather history database for the weather conditions in past years. The results will help you decide how hot, cold, wet, or windy it might be!

Date:

Astronomy

Apr. 12, 2014 Rise Set
Actual Time 7:04 AM CDT 8:06 PM CDT
Civil Twilight 6:38 AM CDT 8:33 PM CDT
Nautical Twilight 6:06 AM CDT 9:04 PM CDT
Astronomical Twilight 5:34 AM CDT 9:37 PM CDT
Moon 5:49 PM CDT (4/12) 5:28 AM CDT (4/12)
Length of Visible Light 13h 54m
Length of Day
13h 01m
Waxing Gibbous, 93% of the Moon is Illuminated
Apr 12
Waxing Gibbous
Apr 15
Full
Apr 22
Last Quarter
Apr 29
New
May 6
First Quarter

Hourly Weather History & Observations

Time (CDT) Temp. Heat Index Dew Point Humidity Pressure Visibility Wind Dir Wind Speed Gust Speed Precip Events Conditions
12:15 AM 64.4 °F - 57.2 °F 77% 29.85 in 10.0 mi SSE 13.8 mph - N/A   Partly Cloudy
12:35 AM 62.6 °F - 57.2 °F 82% 29.85 in 10.0 mi SSE 12.7 mph - N/A   Clear
12:55 AM 60.8 °F - 55.4 °F 82% 29.84 in 10.0 mi SSE 11.5 mph - N/A   Clear
1:15 AM 60.8 °F - 57.2 °F 88% 29.84 in 10.0 mi SSE 11.5 mph - N/A   Clear
1:35 AM 59.0 °F - 57.2 °F 94% 29.82 in 10.0 mi SSE 11.5 mph - N/A   Clear
1:55 AM 59.0 °F - 57.2 °F 94% 29.82 in 10.0 mi SSE 11.5 mph - N/A   Clear
2:15 AM 57.2 °F - 57.2 °F 100% 29.81 in 10.0 mi SSE 11.5 mph - N/A   Clear
2:35 AM 57.2 °F - 57.2 °F 100% 29.80 in 10.0 mi SSE 11.5 mph - N/A   Clear
2:55 AM 57.2 °F - 57.2 °F 100% 29.79 in 9.0 mi SSE 10.4 mph - N/A   Clear
3:15 AM 55.4 °F - 55.4 °F 100% 29.78 in 7.0 mi South 8.1 mph - N/A   Clear
3:35 AM 55.4 °F - 55.4 °F 100% 29.78 in 7.0 mi SSE 9.2 mph - N/A   Clear
3:55 AM 55.4 °F - 55.4 °F 100% 29.77 in 5.0 mi SSE 8.1 mph - N/A   Scattered Clouds
4:15 AM 55.4 °F - 55.4 °F 100% 29.77 in 6.0 mi SSE 8.1 mph - N/A   Scattered Clouds
4:35 AM 55.4 °F - 55.4 °F 100% 29.76 in 5.0 mi SE 6.9 mph - N/A   Clear
4:55 AM 55.4 °F - 55.4 °F 100% 29.75 in 5.0 mi SSE 6.9 mph - N/A   Scattered Clouds
5:15 AM 55.4 °F - 55.4 °F 100% 29.75 in 4.0 mi SSE 8.1 mph - N/A   Partly Cloudy
5:35 AM 55.4 °F - 55.4 °F 100% 29.75 in 3.0 mi South 8.1 mph - N/A   Clear
5:55 AM 55.4 °F - 55.4 °F 100% 29.73 in 4.0 mi SSE 9.2 mph - N/A   Clear
6:15 AM 57.2 °F - 57.2 °F 100% 29.73 in 4.0 mi SSE 10.4 mph - N/A   Clear
6:35 AM 57.2 °F - 57.2 °F 100% 29.73 in 5.0 mi South 11.5 mph - N/A   Clear
6:55 AM 57.2 °F - 57.2 °F 100% 29.73 in 5.0 mi South 11.5 mph - N/A   Clear
7:15 AM 55.4 °F - 55.4 °F 100% 29.73 in 4.0 mi South 9.2 mph - N/A   Clear
7:35 AM 55.4 °F - 55.4 °F 100% 29.73 in 2.5 mi South 9.2 mph - N/A   Clear
7:55 AM 57.2 °F - 57.2 °F 100% 29.73 in 2.5 mi South 8.1 mph - N/A   Clear
8:15 AM 59.0 °F - 59.0 °F 100% 29.72 in 5.0 mi South 10.4 mph - N/A   Clear
8:35 AM 60.8 °F - 60.8 °F 100% 29.71 in 7.0 mi South 13.8 mph - N/A   Clear
8:55 AM 62.6 °F - 62.6 °F 100% 29.72 in 10.0 mi SSE 10.4 mph - N/A   Clear
9:15 AM 64.4 °F - 62.6 °F 94% 29.72 in 10.0 mi South 11.5 mph - N/A   Clear
9:35 AM 64.4 °F - 60.8 °F 88% 29.71 in 10.0 mi South 9.2 mph - N/A   Clear
9:55 AM 66.2 °F - 60.8 °F 83% 29.71 in 10.0 mi South 9.2 mph - N/A   Clear
10:15 AM 68.0 °F - 60.8 °F 78% 29.71 in 10.0 mi SSW 9.2 mph - N/A   Clear
10:35 AM 71.6 °F - 59.0 °F 64% 29.71 in 10.0 mi SSW 15.0 mph 20.7 mph N/A   Clear
10:55 AM 73.4 °F - 57.2 °F 57% 29.70 in 10.0 mi SSW 11.5 mph - N/A   Clear
11:15 AM 75.2 °F - 57.2 °F 53% 29.69 in 10.0 mi SSW 16.1 mph - N/A   Clear
11:35 AM 78.8 °F - 55.4 °F 44% 29.68 in 10.0 mi South 16.1 mph 24.2 mph N/A   Clear
11:55 AM 80.6 °F 80.3 °F 53.6 °F 39% 29.68 in 10.0 mi SSW 18.4 mph 26.5 mph N/A   Clear
12:15 PM 80.6 °F 80.3 °F 53.6 °F 39% 29.67 in 10.0 mi SSW 19.6 mph 25.3 mph N/A   Clear
12:30 PM 82.4 °F - 50.0 °F 32% 29.66 in 10.0 mi SSW 18.4 mph 27.6 mph N/A   Clear
12:50 PM 84.2 °F - 50.0 °F 30% 29.65 in 10.0 mi SSW 16.1 mph 24.2 mph N/A   Clear
1:10 PM 84.2 °F - 48.2 °F 29% 29.64 in 10.0 mi SSW 20.7 mph 27.6 mph N/A   Clear
1:30 PM 86.0 °F - 48.2 °F 27% 29.63 in 10.0 mi SSW 13.8 mph 20.7 mph N/A   Clear
1:50 PM 87.8 °F - 48.2 °F 25% 29.61 in 10.0 mi SW 15.0 mph - N/A   Clear
2:10 PM 89.6 °F - 46.4 °F 22% 29.59 in 10.0 mi SSW 21.9 mph 28.8 mph N/A   Clear
2:30 PM 91.4 °F - 46.4 °F 21% 29.58 in 10.0 mi SSW 20.7 mph 27.6 mph N/A   Clear
2:50 PM 91.4 °F - 48.2 °F 23% 29.58 in 10.0 mi SSW 23.0 mph 28.8 mph N/A   Clear
3:10 PM 89.6 °F - 50.0 °F 26% 29.57 in 10.0 mi South 25.3 mph 31.1 mph N/A   Clear
3:30 PM 89.6 °F - 50.0 °F 26% 29.56 in 10.0 mi SSW 26.5 mph 34.5 mph N/A   Clear
3:50 PM 89.6 °F - 48.2 °F 24% 29.55 in 10.0 mi South 23.0 mph 31.1 mph N/A   Clear
4:15 PM 89.6 °F - 48.2 °F 24% 29.54 in 10.0 mi South 21.9 mph 33.4 mph N/A   Clear
4:30 PM 87.8 °F - 46.4 °F 24% 29.54 in 10.0 mi South 25.3 mph 35.7 mph N/A   Clear
4:50 PM 87.8 °F - 48.2 °F 25% 29.53 in 10.0 mi SSW 26.5 mph 33.4 mph N/A   Clear
5:10 PM 87.8 °F - 48.2 °F 25% 29.53 in 10.0 mi South 26.5 mph 40.3 mph N/A   Clear
5:30 PM 86.0 °F - 46.4 °F 25% 29.52 in 10.0 mi SSW 26.5 mph 38.0 mph N/A   Clear
5:50 PM 86.0 °F - 50.0 °F 29% 29.52 in 10.0 mi SSW 26.5 mph 35.7 mph N/A   Clear
6:10 PM 86.0 °F - 50.0 °F 29% 29.52 in 10.0 mi South 27.6 mph 34.5 mph N/A   Clear
6:30 PM 84.2 °F 82.8 °F 53.6 °F 35% 29.51 in 10.0 mi South 26.5 mph 33.4 mph N/A   Clear
6:50 PM 84.2 °F 83.0 °F 55.4 °F 37% 29.52 in 10.0 mi South 29.9 mph 36.8 mph N/A   Clear
7:10 PM 82.4 °F 81.7 °F 55.4 °F 39% 29.52 in 10.0 mi South 27.6 mph 38.0 mph N/A   Clear
7:30 PM 80.6 °F 80.8 °F 57.2 °F 45% 29.52 in 10.0 mi South 26.5 mph 35.7 mph N/A   Clear
7:50 PM 78.8 °F - 57.2 °F 47% 29.52 in 10.0 mi South 27.6 mph 34.5 mph N/A   Clear
8:10 PM 77.0 °F - 57.2 °F 50% 29.53 in 10.0 mi South 24.2 mph 33.4 mph N/A   Clear
8:30 PM 77.0 °F - 57.2 °F 50% 29.53 in 10.0 mi South 26.5 mph 35.7 mph N/A   Clear
8:50 PM 75.2 °F - 57.2 °F 53% 29.54 in 10.0 mi South 19.6 mph 27.6 mph N/A   Clear
9:10 PM 75.2 °F - 57.2 °F 53% 29.54 in 10.0 mi South 19.6 mph - N/A   Clear
9:30 PM 75.2 °F - 57.2 °F 53% 29.54 in 10.0 mi South 20.7 mph 26.5 mph N/A   Clear
9:50 PM 73.4 °F - 57.2 °F 57% 29.54 in 10.0 mi SSE 18.4 mph 29.9 mph N/A   Clear
10:10 PM 75.2 °F - 57.2 °F 53% 29.55 in 10.0 mi South 29.9 mph 36.8 mph N/A   Clear
10:30 PM 75.2 °F - 57.2 °F 53% 29.55 in 10.0 mi South 20.7 mph 29.9 mph N/A   Clear
10:50 PM 75.2 °F - 57.2 °F 53% 29.54 in 10.0 mi South 26.5 mph 33.4 mph N/A   Clear
11:10 PM 75.2 °F - 57.2 °F 53% 29.55 in 10.0 mi South 26.5 mph 34.5 mph N/A   Clear
11:30 PM 75.2 °F - 57.2 °F 53% 29.54 in 10.0 mi South 25.3 mph 28.8 mph N/A   Partly Cloudy
11:50 PM 73.4 °F - 57.2 °F 57% 29.53 in 10.0 mi South 24.2 mph 28.8 mph N/A   Partly Cloudy